TimeEDT,TemperatureF,Dew PointF,Humidity,Sea Level PressureIn,VisibilityMPH,Wind Direction,Wind SpeedMPH,Gust SpeedMPH,PrecipitationIn,Events,Conditions,WindDirDegrees,DateUTC
12:15 AM,55.4,48.2,77,29.88,10.0,ESE,5.8,-,N/A,,Mostly Cloudy,110,2012-10-02 04:15:00
12:35 AM,55.4,48.2,77,29.87,10.0,ESE,6.9,-,N/A,,Overcast,110,2012-10-02 04:35:00
12:55 AM,55.4,48.2,77,29.86,10.0,East,5.8,-,N/A,,Overcast,80,2012-10-02 04:55:00
1:15 AM,55.4,48.2,77,29.87,10.0,East,4.6,-,N/A,,Overcast,90,2012-10-02 05:15:00
1:35 AM,55.4,48.2,77,29.87,10.0,East,5.8,-,N/A,,Overcast,100,2012-10-02 05:35:00
1:55 AM,55.4,48.2,77,29.87,10.0,East,5.8,-,N/A,,Overcast,100,2012-10-02 05:55:00
2:15 AM,55.4,48.2,77,29.87,10.0,East,4.6,-,N/A,,Overcast,100,2012-10-02 06:15:00
2:35 AM,55.4,48.2,77,29.86,10.0,East,5.8,-,N/A,,Overcast,80,2012-10-02 06:35:00
2:55 AM,55.4,48.2,77,29.85,10.0,East,4.6,-,N/A,,Overcast,90,2012-10-02 06:55:00
3:15 AM,55.4,48.2,77,29.85,10.0,ESE,4.6,-,N/A,,Overcast,110,2012-10-02 07:15:00
3:35 AM,55.4,50.0,82,29.84,10.0,ESE,8.1,-,N/A,,Overcast,110,2012-10-02 07:35:00
3:55 AM,55.4,50.0,82,29.85,10.0,ESE,8.1,-,N/A,,Overcast,120,2012-10-02 07:55:00
4:15 AM,55.4,50.0,82,29.85,10.0,ESE,5.8,-,N/A,,Overcast,110,2012-10-02 08:15:00
4:35 AM,55.4,51.8,88,29.85,10.0,ESE,9.2,-,N/A,,Overcast,120,2012-10-02 08:35:00
4:55 AM,55.4,51.8,88,29.86,10.0,ESE,6.9,-,N/A,,Overcast,110,2012-10-02 08:55:00
5:15 AM,55.4,51.8,88,29.85,9.0,East,6.9,-,N/A,,Overcast,100,2012-10-02 09:15:00
5:35 AM,55.4,51.8,88,29.86,6.0,ESE,6.9,-,0.02,,Overcast,120,2012-10-02 09:35:00
5:55 AM,53.6,51.8,94,29.86,5.0,ESE,6.9,-,0.10,,Mostly Cloudy,120,2012-10-02 09:55:00
6:15 AM,53.6,51.8,94,29.85,5.0,ESE,6.9,-,0.01,,Overcast,110,2012-10-02 10:15:00
6:35 AM,53.6,53.6,100,29.86,6.0,ESE,5.8,-,0.02,,Overcast,110,2012-10-02 10:35:00
6:55 AM,55.4,53.6,94,29.86,4.0,ESE,6.9,-,0.03,,Overcast,120,2012-10-02 10:55:00
7:15 AM,55.4,53.6,94,29.86,5.0,ESE,5.8,-,N/A,,Overcast,120,2012-10-02 11:15:00
7:35 AM,55.4,53.6,94,29.87,5.0,ESE,8.1,-,N/A,,Overcast,120,2012-10-02 11:35:00
7:55 AM,55.4,53.6,94,29.87,4.0,ESE,4.6,-,N/A,,Overcast,110,2012-10-02 11:55:00
8:15 AM,55.4,55.4,100,29.88,5.0,ESE,9.2,-,N/A,,Overcast,120,2012-10-02 12:15:00
8:35 AM,55.4,55.4,100,29.89,5.0,ESE,5.8,-,N/A,,Overcast,120,2012-10-02 12:35:00
8:55 AM,57.2,55.4,94,29.89,5.0,ESE,4.6,-,N/A,,Overcast,110,2012-10-02 12:55:00
9:15 AM,57.2,55.4,94,29.89,5.0,SE,5.8,-,N/A,,Overcast,130,2012-10-02 13:15:00
9:35 AM,57.2,57.2,100,29.89,8.0,SSE,6.9,-,N/A,,Overcast,150,2012-10-02 13:35:00
9:55 AM,59.0,57.2,94,29.90,5.0,SSE,8.1,-,N/A,,Overcast,150,2012-10-02 13:55:00
10:15 AM,60.8,59.0,94,29.90,3.0,SSE,6.9,-,N/A,,Overcast,150,2012-10-02 14:15:00
10:35 AM,60.8,57.2,88,29.90,4.0,SSE,8.1,-,0.01,,Overcast,150,2012-10-02 14:35:00
10:55 AM,60.8,57.2,88,29.90,3.0,SSE,8.1,-,0.01,,Overcast,150,2012-10-02 14:55:00
11:15 AM,60.8,59.0,94,29.90,3.0,SE,5.8,-,N/A,,Overcast,140,2012-10-02 15:15:00
11:35 AM,62.6,60.8,94,29.90,7.0,SE,6.9,-,N/A,,Overcast,140,2012-10-02 15:35:00
11:55 AM,62.6,60.8,94,29.90,10.0,SE,5.8,-,N/A,,Overcast,140,2012-10-02 15:55:00
12:15 PM,62.6,60.8,94,29.90,9.0,SE,4.6,-,N/A,,Overcast,130,2012-10-02 16:15:00
12:35 PM,62.6,62.6,100,29.90,3.0,SE,4.6,-,0.04,,Overcast,140,2012-10-02 16:35:00
12:55 PM,62.6,62.6,100,29.91,10.0,SSE,4.6,-,0.04,,Overcast,150,2012-10-02 16:55:00
1:15 PM,64.4,62.6,94,29.90,7.0,SE,6.9,-,N/A,,Overcast,140,2012-10-02 17:15:00
1:35 PM,64.4,62.6,94,29.90,4.0,SE,6.9,-,0.02,,Overcast,140,2012-10-02 17:35:00
1:55 PM,64.4,62.6,94,29.89,3.0,SE,5.8,-,0.03,,Overcast,140,2012-10-02 17:55:00
2:15 PM,64.4,62.6,94,29.89,10.0,SE,6.9,-,N/A,,Overcast,130,2012-10-02 18:15:00
2:35 PM,64.4,62.6,94,29.88,10.0,ESE,6.9,-,N/A,,Overcast,110,2012-10-02 18:35:00
2:55 PM,64.4,64.4,100,29.88,10.0,ESE,4.6,-,N/A,,Overcast,110,2012-10-02 18:55:00
3:15 PM,64.4,64.4,100,29.88,10.0,ESE,5.8,-,N/A,,Overcast,120,2012-10-02 19:15:00
3:35 PM,66.2,64.4,94,29.88,10.0,ESE,4.6,-,N/A,,Overcast,120,2012-10-02 19:35:00
3:55 PM,66.2,64.4,94,29.88,10.0,ESE,4.6,-,N/A,,Overcast,110,2012-10-02 19:55:00
4:15 PM,66.2,64.4,94,29.88,4.0,ESE,3.5,-,N/A,,Overcast,110,2012-10-02 20:15:00
4:35 PM,66.2,64.4,94,29.88,5.0,ESE,4.6,-,N/A,,Overcast,110,2012-10-02 20:35:00
4:55 PM,66.2,64.4,94,29.89,10.0,ESE,5.8,-,N/A,,Overcast,110,2012-10-02 20:55:00
5:15 PM,66.2,64.4,94,29.88,10.0,ESE,8.1,-,N/A,,Overcast,120,2012-10-02 21:15:00
5:35 PM,66.2,64.4,94,29.89,10.0,ESE,8.1,-,N/A,,Overcast,120,2012-10-02 21:35:00
5:55 PM,66.2,64.4,94,29.90,10.0,ESE,6.9,-,N/A,,Overcast,120,2012-10-02 21:55:00
6:15 PM,66.2,62.6,88,29.90,10.0,ESE,5.8,-,N/A,,Overcast,120,2012-10-02 22:15:00
6:35 PM,66.2,62.6,88,29.91,10.0,ESE,4.6,-,N/A,,Overcast,110,2012-10-02 22:35:00
6:55 PM,64.4,62.6,94,29.91,10.0,East,3.5,-,N/A,,Overcast,90,2012-10-02 22:55:00
7:15 PM,64.4,62.6,94,29.91,10.0,East,4.6,-,N/A,,Overcast,80,2012-10-02 23:15:00
7:35 PM,64.4,62.6,94,29.92,10.0,East,5.8,-,N/A,,Overcast,90,2012-10-02 23:35:00
8:15 PM,64.4,62.6,94,29.92,10.0,East,5.8,-,N/A,,Overcast,90,2012-10-03 00:15:00
8:35 PM,64.4,62.6,94,29.92,10.0,East,5.8,-,N/A,,Overcast,80,2012-10-03 00:35:00
8:55 PM,64.4,62.6,94,29.93,10.0,East,4.6,-,N/A,,Scattered Clouds,80,2012-10-03 00:55:00
9:15 PM,62.6,60.8,94,29.92,10.0,East,4.6,-,N/A,,Clear,90,2012-10-03 01:15:00
9:35 PM,62.6,60.8,94,29.93,10.0,East,5.8,-,N/A,,Clear,80,2012-10-03 01:35:00
9:55 PM,62.6,60.8,94,29.93,10.0,East,5.8,-,N/A,,Partly Cloudy,90,2012-10-03 01:55:00
10:15 PM,62.6,60.8,94,29.93,10.0,East,6.9,-,N/A,,Partly Cloudy,90,2012-10-03 02:15:00
10:35 PM,62.6,60.8,94,29.94,9.0,East,4.6,-,N/A,,Mostly Cloudy,80,2012-10-03 02:35:00
10:55 PM,62.6,60.8,94,29.94,10.0,ESE,4.6,-,N/A,,Mostly Cloudy,110,2012-10-03 02:55:00
11:15 PM,62.6,60.8,94,29.95,8.0,ESE,5.8,-,N/A,,Mostly Cloudy,120,2012-10-03 03:15:00
11:35 PM,62.6,60.8,94,29.94,10.0,ESE,6.9,-,N/A,,Overcast,110,2012-10-03 03:35:00
11:55 PM,62.6,60.8,94,29.94,9.0,ESE,5.8,-,N/A,,Overcast,110,2012-10-03 03:55:00